Погода в Кош-Хабле

Россия / Карачаево-Черкесская Республика     44°08′33″N   41°51′11″E
темп.,
°C
ветер,
м/с
пор.,
м/с
влажн.,
%
обл.,
%
осадки,
мм/ч
давл.,
гПа
погр.,
м
11 мая, вт
вт1100:00+2ююз328972 0.0 101929
03:00+2ю4668100 0.0 1019117
06:00+3ю3561100 0.1 1018136
09:00+8юв2348100 0.1 1016663
12:00+10сз1146100 0.0 10151123
15:00+10св2355100 0.0 10151270
18:00+8св3880100 0.1 1016451
21:00+6юз1186100 0.1 101611
12 мая, ср
ср1200:00+4юз229115 0.0 101715
03:00+2ююз22916 0.0 101823
06:00+4ю22765 0.0 101855
09:00+11всв22585 0.0 1016513
12:00+15всв44600 0.0 10151120
15:00+17в56590 0.0 10141179
18:00+15в6107227 0.0 1014612
21:00+10в2690100 0.0 1014178
13 мая, чт
чт1300:00+8ю22910 0.0 101314
03:00+7ю22690 0.0 101419
06:00+9ю33660 0.0 101442
09:00+18вюв115082 0.0 1012320
12:00+21всв33510 0.0 1012681
15:00+23всв56562 0.0 1012866
18:00+20всв48755 0.0 1012334
21:00+14ююв118914 0.0 101311
14 мая, пт
пт1400:00+13ю338997 0.0 101330
03:00+12ю44620 0.0 101344
06:00+13ю45620 0.0 101360
09:00+23ю23484 0.0 1012229
12:00+27всв22355 0.0 1011828
15:00+27всв44455 0.0 10101102
18:00+23всв47764 0.0 1011241
21:00+17ююв22885 0.0 101211
15 мая, сб
сб1500:00+16ю33843 0.0 101141
03:00+14ююз46590 0.0 101265
06:00+14юз33720 0.0 101441
09:00+22зсз23620 0.0 1014551
12:00+24с33610 0.0 1014973
15:00+23с546888 0.0 10151312
18:00+20с2585100 0.4 1016280
21:00+16ю119299 0.4 101611